Regional Weather Roundup
Issued by NWS

Home | Current Version | Previous Version | Graphics & Text | Print | Product List | Glossary On
Versions: 1 2 3 4 5 6 7 8 9 10 11 12 13 14 15 16 17 18 19 20 21 22 23 24 25 26 27 28 29 30 31 32 33 34 35 36 37 38 39 40 41 42 43 44 45 46 47 48 49 50
000
ASUS43 KLSX 221107
RWRMO

WEATHER SUMMARY FOR MISSOURI
NATIONAL WEATHER SERVICE SPRINGFIELD MO
600 AM CDT MON SEP 22 2014

NOTE: "FAIR" INDICATES FEW OR NO CLOUDS BELOW 12,000 FEET WITH NO
       SIGNIFICANT WEATHER AND/OR OBSTRUCTIONS TO VISIBILITY.
       CURRENT SKY AND/OR WEATHER CONDITIONS ARE NOT AVAILABLE FOR
       CHILLICOTHE AND FARMINGTON.

MOZ001>031-035>038-043-044-053-054-221200-
...NORTHERN AND WESTERN MISSOURI...

CITY           SKY/WX    TMP DP  RH WIND       PRES   REMARKS
KANSAS CTY INT CLEAR     51  48  89 NE6       30.29S
KANSAS C DTWN  CLEAR     53  50  89 CALM      30.29R
LEE`S SUMMIT   CLEAR     53  49  86 NE6       30.29R
ST JOSEPH      FOG       45  45 100 CALM      30.30S VSB 1
CHILLICOTHE      N/A     48  45  89 CALM      30.31R
KIRKSVILLE     CLEAR     47  46  97 NW5       30.29R

$$
MOZ066>068-077>081-088>096-101>105-221200-
...SOUTHWEST MISSOURI...

CITY           SKY/WX    TMP DP  RH WIND       PRES   REMARKS
SPRINGFIELD    CLEAR     50  46  86 CALM      30.26R
JOPLIN         CLEAR     51  49  92 NE3       30.27R

$$
MOZ032>034-039>042-045>050-055>058-069>072-221200-
...CENTRAL MISSOURI...

CITY           SKY/WX    TMP DP  RH WIND       PRES   REMARKS
COLUMBIA       CLEAR     49  48  97 NW6       30.26R
JEFFERSON CITY CLEAR     50  49  96 NW5       30.26R
ROLLA          CLEAR     50  47  89 NW3       30.24R
SEDALIA        CLEAR     50  48  93 NW5       30.28R
WHITEMAN AFB   CLEAR     49  48  95 N6        30.28R
OSAGE BEACH    CLEAR     48  45  87 CALM      30.26R

$$
MOZ051-052-059>065-221200-
...EAST CENTRAL MISSOURI...

CITY           SKY/WX    TMP DP  RH WIND       PRES   REMARKS
ST LOUIS INTL  CLEAR     54  49  83 N5        30.24R
SPIRIT OF STL  CLEAR     48  47  96 CALM      30.24R
ST CHARLES     CLEAR     53  49  86 N3        30.24R

$$
MOZ072>076-082>087-097>100-106>115-221200-
...SOUTH CENTRAL AND SOUTHEAST MISSOURI...

CITY           SKY/WX    TMP DP  RH WIND       PRES   REMARKS
CAPE GIRARDEAU CLEAR     50  48  93 W3        30.20R
FARMINGTON     CLEAR     50  48  93 CALM      30.24R
POPLAR BLUFF   CLEAR     51  47  86 CALM      30.20R
WEST PLAINS    CLEAR     50  46  86 N3        30.25R

$$



USA.gov is the U.S. government's official web portal to all federal, state and local government web resources and services.